To NAV CANADA Home Page Login to a new session Search on AWWS site Feedback and Comments Disclaimer Vers la page française équivalente Tips FAQ What's new on the site To the Forecasts and Observations / NOTAM section To "File a Flight Plan" website Publications and other links Update of the User's profile FIC Telephone Numbers My Weather Data Folder Route Weather Data Regional Weather Data Local Weather Data To the Forecasts and Observations / NOTAM section
Request Generated 02/08/2016 at 03:49:00 UTC . Weather information available at that time is displayed.

METAR/TAF

AUPALUK/QC    

LWIS CYLA 080300Z AUTO 30018KT M28/M32 A3017=
LWIS CYLA 080200Z AUTO 29014KT M28/M32 A3017=
LWIS CYLA 080100Z AUTO 24006G15KT 210V330 M28/M33 A3016=

CYLA - No TAF is issued for this station

Your time UTC time
Weather data provided by Environment Canada and NAV CANADA